SCP
0 0 0 0 0 0 0 0 0 0 0 0 0 0 0 0 0 0 0 0 0 0 0 0 0 0 0 0 0 0 0 0 0 0 0 0 0 0 0 0 0 0 0 0 0 0 0 0 0
0 0 0 0 0 0 0 0 0 0 0 0 0 0 0 0 0 0 0 0 0 0 0 0 0 0 0 0 0 0 0 0 0 0 0 0 0 0 0 0 0 0 0 0 0 0 0 0 0
0 0 0 0 0 0 0 0 0 0 0 0 0 0 0 0 0 0 0 0 0 0 0 0 0 0 0 0 0 0 0 0 0 0 0 0 0 0 0 0 0 0 0 0 0 0 0 0 0
0 0 0 0 0 0 0 0 0 0 0 0 0 0 0 0 0 0 0 0 0 0 0 0 0 0 0 0 0 0 0 0 0 0 0 0 0 0 0 0 0 0 0 0 0 0 0 0 0
0 0 0 0 0 0 0 0 0 0 0 0 0 0 0 0 0 0 0 0 0 0 0 0 0 0 0 0 0 0 0 0 0 0 0 0 0 0 0 0 0 0 0 0 0 0 0 0 0
0 0 0 0 0 0 0 0 0 0 0 0 0 0 0 0 0 0 0 0 0 0 0 0 0 0 0 0 0 0 0 0 0 0 0 0 0 0 0 0 0 0 0 0 0 0 0 0 0
0 0 0 0 0 0 0 0 0 0 0 0 0 0 0 0 0 0 0 0 0 0 0 0 0 0 0 0 0 0 0 0 0 0 0 0 0 0 0 0 0 0 0 0 0 0 0 0 0
0 0 0 0 0 0 0 0 0 0 0 0 0 0 0 0 0 0 0 0 0 0 0 0 0 0 0 0 0 0 0 0 0 0 0 0 0 0 0 0 0 0 0 0 0 0 0 0 0
0 0 0 0 0 0 0 0 0 0 0 0 0 0 0 0 0 0 0 0 0 0 0 0 0 0 0 0 0 0 0 0 0 0 0 0 0 0 0 0 0 0 0 0 0 0 0 0 0
0 0 0 0 0 0 0 0 0 0 0 0 0 0 0 0 0 0 0 0 0 0 0 0 0 0 0 0 0 0 0 0 0 0 0 0 0 0 0 0 0 0 0 0 0 0 0 0 0
0 0 0 0 0 0 0 0 0 0 0 0 0 0 0 0 0 0 0 0 0 0 0 0 0 0 0 0 0 0 0 0 0 0 0 0 0 0 0 0 0 0 0 0 0 0 0 0 0
0 0 0 0 0 0 0 0 0 0 0 0 0 0 0 0 0 0 0 0 0 0 0 0 0 0 0 0 0 0 0 0 0 0 0 0 0 0 0 0 0 0 0 0 0 0 0 0 0
0 0 0 0 0 0 0 0 0 0 0 0 0 0 0 0 0 0 0 0 0 0 0 0 0 0 0 0 0 0 0 0 0 0 0 0 0 0 0 0 0 0 0 0 0 0 0 0 0
0 0 0 0 0 0 0 0 0 0 0 0 0 0 0 0 0 0 0 0 0 0 0 0 0 0 0 0 0 0 0 0 0 0 0 0 0 0 0 0 0 0 0 0 0 0 0 0 0
0 0 0 0 0 0 0 0 0 0 0 0 0 0 0 0 0 0 0 0 0 0 0 0 0 0 0 0 0 0 0 0 0 0 0 0 0 0 0 0 0 0 0 0 0 0 0 0 0
0 0 0 0 0 0 0 0 0 0 0 0 0 0 0 0 0 0 0 0 0 0 0 0 0 0 0 0 0 0 0 0 0 0 0 0 0 0 0 0 0 0 0 0 0 0 0 0 0
0 0 0 0 0 0 0 0 0 0 0 0 0 0 0 0 0 0 0 0 0 0 0 0 0 0 0 0 0 0 0 0 0 0 0 0 0 0 0 0 0 0 0 0 0 0 0 0 0
0 0 0 0 0 0 0 0 0 0 0 0 0 0 0 0 0 0 0 0 0 0 0 0 0 0 0 0 0 0 0 0 0 0 0 0 0 0 0 0 0 0 0 0 0 0 0 0 0
0 0 0 0 0 0 0 0 0 0 0 0 0 0 0 0 0 0 0 0 0 0 0 0 0 0 0 0 0 0 0 0 0 0 0 0 0 0 0 0 0 0 0 0 0 0 0 0 0
0 0 0 0 0 0 0 0 0 0 0 0 0 0 0 0 0 0 0 0 0 0 0 0 0 0 0 0 0 0 0 0 0 0 0 0 0 0 0 0 -0 0 0 0 0 0 0 0 0
0 0 0 0 0 0 0 0 0 0 0 0 0 0 0 0 0 0 0 0 0 0 0 0 0 0 0 0 0 0 0 0 0 0 0 0 0 0 0 0 0 0 0 0 0 0 0 0 0
0 0 0 0 0 0 0 0 0 0 0 0 0 0 0 0 0 0 0 0 0 0 0 0 0 0 0 0 0 0 0 0 0 0 0 0 0 0 0 0 0 0 0 0 0 0 0 0 0
0 0 0 0 0 0 0 0 0 0 0 0 0 0 0 0 0 0 0 0 0 0 0 0 0 0 0 0 0 0 0 0 0 0 0 0 0 0 0 0 0 0 0 0 0 0 0 0 0
0 0 0 0 0 0 0 0 0 0 0 0 0 0 0 0 0 0 0 0 0 0 0 0 0 0 0 0 0 0 0 0 0 0 0 0 0 0 0 0 0 0 0 0 0 0 0 0 0
0 0 0 0 0 0 0 0 0 0 0 0 0 0 0 0 0 0 0 0 0 0 0 0 0 0 0 0 0 0 0 0 0 0 0 0 0 0 0 0 0 0 0 0 0 0 0 0 0
0 0 0 0 0 0 0 0 0 0 0 0 0 0 0 0 0 0 0 0 0 0 0 0 0 0 0 0 0 0 0 0 0 0 0 0 0 0 0 0 0 0 0 0 0 0 0 0 0
0 0 0 0 0 0 0 0 0 0 0 0 0 0 0 0 0 0 0 0 0 0 0 0 0 0 0 0 0 0 0 0 0 0 0 0 0 0 0 0 0 0 0 0 0 0 0 0 0
0 0 0 0 0 0 0 0 0 0 0 0 0 0 0 0 0 0 0 0 0 0 0 0 0 0 0 0 0 0 0 0 0 0 0 0 0 0 0 0 0 0 0 0 0 0 0 0 0
0 0 0 0 0 0 0 0 0 0 0 0 0 0 0 0 0 0 0 0 0 0 0 0 0 0 0 0 0 0 0 0 0 0 0 0 0 0 0 0 0 0 0 0 0 0 0 0 0
0 0 0 0 0 0 0 0 0 0 0 0 0 0 0 0 0 0 0 0 0 0 0 0 0 0 0 0 0 0 0 0 0 0 0 0 0 0 0 0 0 0 0 0 0 0 0 0 0
Wind_Speed
3 3 2 2 2 4 6 4 2 2 3 3 2 2 6 7 7 7 5 3 3 7 11 11 8 9 9 9 9 10 10 10 10 10 9 9 8 9 10 11 11 12 13 13 13 13 13 12 11
3 2 2 1 2 5 6 4 4 4 3 1 1 1 4 7 6 5 5 3 2 7 10 10 9 9 9 9 9 9 9 10 10 9 9 8 8 9 10 11 11 12 12 12 13 13 13 12 12
1 2 1 1 2 4 7 4 4 2 2 0 2 3 5 6 6 5 6 2 2 5 8 8 7 8 9 9 8 8 8 9 9 8 8 8 8 9 10 11 11 12 11 12 12 12 13 13 12
2 2 1 2 7 3 3 3 1 2 2 1 1 5 6 8 7 7 6 3 3 4 6 7 5 7 8 8 8 8 8 8 8 7 7 7 7 8 9 10 11 11 11 11 11 12 13 13 12
1 2 2 5 5 3 1 1 1 2 2 3 1 5 6 6 9 8 7 5 5 4 3 4 4 4 7 8 8 7 7 7 7 7 6 6 7 8 9 10 11 11 10 10 11 11 12 12 12
1 1 4 6 6 3 2 0 2 2 3 2 2 5 6 7 12 10 8 8 8 6 4 2 1 2 5 7 7 7 7 7 7 6 7 6 6 8 9 10 10 10 10 10 10 10 11 12 12
1 2 3 7 8 5 3 1 1 2 4 3 2 4 7 7 12 8 7 8 9 9 7 5 2 3 4 5 7 7 7 7 7 6 6 6 6 7 8 9 10 10 10 10 9 9 10 11 11
1 3 5 7 8 6 3 2 1 1 4 3 3 2 4 8 13 5 4 7 8 9 8 7 5 3 3 5 6 6 6 6 6 6 5 5 6 7 8 8 9 10 10 10 9 8 8 9 10
2 3 5 8 8 6 4 4 2 1 2 4 6 5 6 10 8 4 4 6 8 9 8 7 6 5 4 3 3 5 5 5 5 5 5 5 4 5 6 7 9 10 10 10 10 8 7 6 7
1 3 3 3 4 6 5 3 2 3 4 5 5 5 6 7 8 8 8 9 10 11 10 7 6 5 3 2 3 3 3 3 4 3 3 3 2 2 3 7 8 9 10 11 11 10 7 2 3
1 1 4 4 3 4 5 3 1 2 3 2 2 4 7 8 9 9 9 9 9 9 9 9 7 5 3 2 2 2 1 1 1 2 2 2 1 2 2 3 5 5 5 4 7 6 3 2 2
1 2 2 3 4 4 4 4 3 0 4 5 5 4 5 8 9 9 9 10 9 10 11 10 8 4 2 2 1 1 1 1 2 3 3 1 0 1 2 2 3 2 1 1 1 1 1 2 2
2 2 2 2 4 3 3 4 3 5 5 5 6 6 7 8 8 7 7 8 9 10 11 11 9 4 1 3 2 3 4 5 6 7 6 5 2 1 2 2 2 2 2 1 1 1 1 1 1
1 2 3 3 5 4 6 4 6 6 6 5 5 7 7 7 8 8 9 10 10 10 11 10 10 8 7 6 7 7 8 8 9 9 11 10 7 5 5 5 4 4 3 3 2 2 2 2 2
1 3 4 4 4 4 6 5 4 9 8 5 5 5 5 6 7 8 9 9 9 9 9 10 10 11 12 12 12 9 9 9 9 9 12 12 11 9 8 7 6 6 5 4 4 4 3 2 2
2 3 5 3 3 4 8 6 6 10 8 5 4 3 3 5 6 7 8 8 8 8 8 9 9 12 14 13 12 10 10 11 10 9 10 14 13 11 9 8 7 7 5 5 5 4 3 3 3
5 6 6 3 3 4 7 5 7 9 7 5 4 3 3 4 6 7 7 7 7 7 7 8 10 12 13 14 13 12 11 12 10 10 10 11 13 12 10 9 8 7 7 6 5 5 4 4 4
7 8 6 7 3 4 7 6 7 7 7 6 5 4 3 4 5 6 7 7 6 6 7 8 9 10 11 10 10 10 12 11 10 10 11 12 11 12 10 9 10 9 8 8 7 7 6 5 6
4 6 8 4 0 4 9 9 9 7 7 7 7 6 5 4 4 5 6 6 6 8 8 8 8 7 6 5 6 8 9 9 10 11 13 14 13 13 12 9 10 10 10 11 11 7 8 8 7
6 8 10 5 1 4 7 12 7 8 7 8 8 8 7 6 5 5 6 7 8 8 8 8 9 9 8 7 7 7 9 9 10 10 13 14 14 14 11 13 11 10 10 12 12 11 8 7 9
12 14 14 8 2 3 5 12 12 8 5 6 7 8 8 8 8 6 6 6 7 8 8 7 9 10 11 11 10 9 9 8 9 10 10 13 14 14 13 14 12 12 11 10 12 11 12 9 9
13 11 11 9 7 7 6 10 8 8 9 10 11 11 11 9 8 7 6 6 6 7 7 8 9 10 10 9 9 11 10 10 8 8 9 11 12 13 13 13 12 11 10 10 10 11 9 9 8
5 4 6 6 9 9 7 10 7 5 10 14 15 14 13 11 9 8 6 6 6 6 7 8 10 10 10 10 12 13 12 11 8 9 10 10 10 11 11 11 10 10 9 9 10 9 9 7 7
10 8 5 2 4 11 13 14 10 9 10 9 17 17 16 13 11 9 7 6 6 6 7 8 10 10 10 10 11 13 14 12 12 10 9 8 7 7 10 9 9 8 7 8 8 7 8 7 7
10 9 6 6 8 11 7 11 12 6 4 7 17 20 18 15 13 12 11 10 9 9 8 8 10 11 10 11 11 12 12 12 11 9 8 7 6 5 7 7 7 7 6 6 6 6 6 7 6
17 16 11 10 9 6 6 12 7 2 4 3 10 17 18 16 14 14 13 11 10 10 10 10 11 11 10 10 11 10 10 8 7 8 7 6 5 5 5 6 6 6 6 5 5 4 5 5 5
13 12 6 3 2 4 9 7 7 4 5 6 11 18 20 19 17 15 14 13 12 12 11 11 12 11 11 10 10 9 9 8 8 8 7 5 5 4 4 4 4 5 5 5 5 4 5 5 5
5 9 7 8 8 10 9 9 8 12 14 12 15 20 21 20 18 16 15 14 13 12 11 11 11 12 11 10 9 7 8 8 7 6 6 6 5 4 3 3 3 3 4 5 5 4 5 6 6
11 10 10 9 7 8 8 8 6 10 13 17 18 19 21 22 21 18 16 15 14 13 12 12 12 12 11 10 9 9 8 7 7 6 6 5 4 3 2 2 2 3 4 4 4 5 6 6 7
13 14 15 11 9 7 7 6 3 4 7 12 15 16 19 21 20 18 17 16 15 15 14 14 13 13 12 11 10 9 8 8 7 6 6 5 4 3 2 0 1 2 3 4 5 6 6 7 8
Wind_Direction
352 339 295 255 197 94 83 75 65 91 86 42 9 12 55 52 42 59 47 98 133 158 163 160 157 147 139 134 131 130 127 125 121 117 112 105 99 96 97 90 80 72 65 60 56 52 48 45 43
350 312 240 243 178 120 102 101 94 60 36 28 109 96 81 72 49 61 50 93 133 158 168 166 155 152 144 141 140 138 134 131 127 122 116 108 101 98 97 90 81 70 61 55 50 45 41 37 36
58 317 268 154 99 109 121 127 103 59 31 304 110 62 46 46 41 37 15 68 121 153 174 162 162 160 153 150 148 144 139 135 130 126 119 112 106 102 98 93 82 71 60 52 47 41 36 32 30
243 195 183 124 103 81 105 119 127 145 125 66 102 99 79 44 18 10 15 76 96 126 172 165 174 170 162 159 158 154 148 143 139 133 128 121 114 109 105 99 86 74 62 54 48 41 34 29 27
250 226 136 116 109 104 124 76 215 165 110 69 90 100 85 46 22 30 40 54 61 80 131 165 176 187 174 170 169 165 160 156 151 147 142 136 131 125 118 106 94 81 69 60 54 44 36 31 28
150 211 175 153 135 136 145 51 200 133 109 81 67 105 93 61 27 24 38 49 52 54 54 70 139 233 198 183 180 176 173 169 169 167 163 158 153 143 130 117 104 90 77 68 63 50 41 35 31
144 170 163 159 150 158 144 150 173 130 118 63 2 128 126 63 12 7 43 53 52 44 36 21 345 237 228 210 197 191 186 183 185 185 179 171 165 153 139 129 116 102 88 81 75 60 50 41 36
45 137 139 166 168 162 141 148 77 19 81 49 353 159 115 1 337 338 48 54 50 39 28 15 355 319 260 229 212 212 205 201 203 200 188 180 177 164 153 143 127 114 104 99 92 78 68 53 44
250 189 179 180 177 155 151 159 115 85 101 76 50 41 5 335 340 15 36 33 29 26 19 9 354 333 301 261 238 227 221 220 224 215 195 199 203 182 166 147 133 126 121 119 114 106 94 76 58
239 209 172 157 164 144 148 148 128 169 146 131 117 77 16 9 23 36 30 16 8 3 2 357 344 323 297 258 234 227 218 217 230 244 229 220 213 172 150 142 141 137 137 138 137 133 128 92 43
36 150 130 147 146 142 151 156 157 214 171 76 42 44 20 24 31 31 27 15 2 351 354 350 338 314 273 226 211 207 202 209 233 261 255 237 215 167 154 144 143 141 145 145 147 150 142 110 74
116 120 145 142 150 168 174 167 172 10 66 58 57 50 37 34 31 22 14 7 359 359 357 350 342 323 257 207 175 162 113 67 37 18 359 310 220 174 150 138 138 141 137 131 149 146 145 136 117
177 152 182 170 175 201 194 200 163 120 104 91 82 67 48 39 32 27 17 14 9 4 357 352 354 13 108 134 103 79 63 52 44 33 20 19 27 55 85 76 76 92 91 92 51 22 8 347 23
140 214 239 220 205 198 197 183 164 145 137 111 81 63 48 39 26 24 21 15 10 2 355 355 10 35 71 77 69 59 56 53 49 40 31 33 35 44 55 55 49 44 41 46 57 47 25 4 0
230 269 252 208 201 186 175 192 194 140 152 126 93 74 58 46 35 29 19 13 8 3 3 12 29 50 64 67 66 61 58 59 53 45 39 41 44 49 56 55 48 40 40 48 54 49 43 28 4
179 246 248 182 179 170 205 222 136 156 167 148 128 108 85 62 44 34 24 19 15 15 22 33 50 63 68 70 70 66 61 60 54 47 44 44 47 51 57 56 49 42 41 43 45 33 35 29 359
212 235 237 224 181 180 219 226 140 172 191 177 159 136 113 91 54 35 29 28 26 29 42 55 64 73 78 78 76 71 65 59 54 49 47 45 47 50 56 55 48 43 44 41 39 37 25 15 354
211 216 225 231 177 205 223 216 159 181 205 195 174 162 143 106 53 32 34 36 44 52 63 74 77 83 89 87 83 77 67 61 55 51 47 48 48 49 56 56 49 43 43 37 32 37 33 16 346
205 212 231 230 151 232 238 238 198 183 201 199 190 180 162 128 83 60 53 53 62 64 69 75 82 87 96 92 85 78 69 64 61 55 51 51 50 51 53 54 50 46 46 38 30 24 25 21 356
205 226 243 247 219 252 261 259 224 199 211 209 197 184 169 149 126 86 70 66 66 68 72 76 77 80 81 87 88 87 91 77 72 66 58 55 55 53 54 55 53 48 49 43 35 29 25 28 19
223 231 239 235 148 225 276 260 226 197 200 196 195 184 173 162 144 120 92 78 75 70 70 78 84 86 90 97 103 107 99 90 77 68 63 55 58 59 57 57 56 51 50 46 40 34 33 28 29
228 226 236 224 229 245 225 269 232 194 203 201 193 188 179 167 155 138 122 100 85 79 84 88 90 90 94 103 107 108 104 98 89 84 79 69 59 58 57 58 57 54 50 47 41 38 35 33 27
216 133 191 217 235 251 217 252 252 181 227 210 195 189 181 172 164 153 139 120 104 99 99 100 97 92 95 100 105 105 102 104 104 98 89 79 67 59 56 55 56 54 50 46 41 37 36 33 27
131 108 95 123 209 246 219 227 252 212 220 189 184 186 181 173 169 161 151 144 130 122 115 114 109 102 104 107 107 109 113 117 114 106 99 87 77 66 58 56 55 51 46 41 36 33 34 27 21
172 164 187 206 216 237 178 221 244 221 177 178 181 181 178 175 174 172 170 167 157 147 136 131 124 116 116 114 112 114 116 117 114 111 103 98 86 71 57 53 51 48 42 35 29 28 24 17 9
194 197 199 209 219 210 179 228 243 111 128 157 179 175 175 179 182 182 181 175 168 161 154 147 139 132 131 127 123 122 122 117 113 111 108 100 93 83 71 59 52 45 36 26 19 18 13 360 351
180 213 208 154 94 246 219 234 259 165 187 175 173 178 184 185 186 186 184 182 178 174 170 163 154 148 146 141 136 135 132 127 125 122 114 108 105 99 81 65 51 38 27 16 5 1 357 343 337
203 169 159 201 201 229 232 221 216 198 203 188 187 190 189 187 188 189 188 187 185 181 176 173 168 161 157 154 150 146 142 138 137 135 130 126 120 113 94 66 42 25 13 2 353 343 340 332 328
171 185 202 199 214 211 234 227 208 202 190 190 195 193 189 189 191 192 191 189 186 184 183 182 178 172 170 168 162 158 156 156 154 151 147 143 139 133 115 70 23 3 354 348 336 335 329 323 319
214 202 191 191 208 215 240 242 125 204 193 192 190 189 192 193 194 193 191 188 188 189 189 189 186 185 182 177 173 172 171 172 174 170 165 163 161 158 154 151 334 339 334 331 325 321 319 316 314